| time (UTC) | temp C | wind direction | speed KPH | gust KPH | rain 1hr cm | rain 24hr cm | rain mn cm | humidity % | barometer mb |
| 20260509231505 | 21 | 312 | 0.0 | 6.4 | 0.00 | 0.00 | 0.00 | 51 | 1017.5 |
| 20260509231006 | 21 | 311 | 0.0 | 6.4 | 0.00 | 0.00 | 0.00 | 51 | 1017.8 |
| 20260509230504 | 21 | 0 | 0.0 | 0.0 | 0.00 | 0.00 | 0.00 | 52 | 1018.0 |
| 20260509230006 | 21 | 308 | 0.0 | 1.6 | 0.00 | 0.00 | 0.00 | 52 | 1017.9 |
| 20260509225505 | 21 | 308 | 0.0 | 1.6 | 0.00 | 0.00 | 0.00 | 52 | 1018.1 |
| 20260509223005 | 21 | 302 | 0.0 | 3.2 | 0.00 | 0.00 | 0.00 | 52 | 1018.3 |
| 20260509222505 | 21 | 302 | 0.0 | 3.2 | 0.00 | 0.00 | 0.00 | 52 | 1018.4 |
| 20260509222006 | 21 | 302 | 0.0 | 1.6 | 0.00 | 0.00 | 0.00 | 53 | 1018.5 |
| 20260509221005 | 21 | 286 | 0.0 | 1.6 | 0.00 | 0.00 | 0.00 | 53 | 1018.3 |
| 20260509220505 | 21 | 286 | 0.0 | 1.6 | 0.00 | 0.00 | 0.00 | 53 | 1018.3 |
| 20260509215505 | 21 | 285 | 0.0 | 1.6 | 0.00 | 0.00 | 0.00 | 52 | 1018.5 |
| 20260509215006 | 21 | 286 | 0.0 | 1.6 | 0.00 | 0.00 | 0.00 | 52 | 1018.4 |
| 20260509214504 | 21 | 286 | 0.0 | 1.6 | 0.00 | 0.00 | 0.00 | 52 | 1018.5 |
| 20260509214005 | 21 | 0 | 0.0 | 0.0 | 0.00 | 0.00 | 0.00 | 52 | 1018.4 |
| 20260509213006 | 21 | 0 | 0.0 | 0.0 | 0.00 | 0.00 | 0.00 | 55 | 1018.6 |
| 20260509212504 | 21 | 0 | 0.0 | 0.0 | 0.00 | 0.00 | 0.00 | 54 | 1018.6 |
| 20260509212005 | 21 | 0 | 0.0 | 0.0 | 0.00 | 0.00 | 0.00 | 53 | 1018.7 |
| 20260509211504 | 21 | 0 | 0.0 | 0.0 | 0.00 | 0.00 | 0.00 | 53 | 1018.7 |
| 20260509210005 | 21 | 286 | 0.0 | 3.2 | 0.00 | 0.00 | 0.00 | 55 | 1018.8 |
| 20260509205504 | 21 | 286 | 0.0 | 3.2 | 0.00 | 0.00 | 0.00 | 55 | 1018.8 |
| 20260509205005 | 21 | 286 | 0.0 | 1.6 | 0.00 | 0.00 | 0.00 | 53 | 1018.8 |
| 20260509204504 | 21 | 286 | 0.0 | 3.2 | 0.00 | 0.00 | 0.00 | 53 | 1018.8 |
| 20260509204005 | 21 | 286 | 0.0 | 3.2 | 0.00 | 0.00 | 0.00 | 54 | 1018.8 |
| 20260509203504 | 20 | 286 | 0.0 | 3.2 | 0.00 | 0.00 | 0.00 | 56 | 1018.9 |
| 20260509203005 | 20 | 286 | 0.0 | 3.2 | 0.00 | 0.00 | 0.00 | 56 | 1019.0 |
| 20260509202504 | 20 | 0 | 0.0 | 0.0 | 0.00 | 0.00 | 0.00 | 56 | 1019.1 |
| 20260509202005 | 20 | 285 | 0.0 | 1.6 | 0.00 | 0.00 | 0.00 | 54 | 1019.2 |
| 20260509201504 | 20 | 285 | 0.0 | 1.6 | 0.00 | 0.00 | 0.00 | 55 | 1019.2 |
| 20260509201006 | 20 | 0 | 0.0 | 0.0 | 0.00 | 0.00 | 0.00 | 56 | 1019.3 |
| 20260509200005 | 20 | 0 | 0.0 | 0.0 | 0.00 | 0.00 | 0.00 | 56 | 1019.3 |
| 20260509195504 | 20 | 0 | 0.0 | 0.0 | 0.00 | 0.00 | 0.00 | 57 | 1019.4 |
| 20260509195004 | 20 | 0 | 0.0 | 0.0 | 0.00 | 0.00 | 0.00 | 58 | 1019.6 |
| 20260509194505 | 20 | 0 | 0.0 | 0.0 | 0.00 | 0.00 | 0.00 | 56 | 1019.8 |
| 20260509194005 | 20 | 0 | 0.0 | 0.0 | 0.00 | 0.00 | 0.00 | 57 | 1019.8 |
| 20260509193504 | 20 | 0 | 0.0 | 0.0 | 0.00 | 0.00 | 0.00 | 56 | 1019.9 |
| 20260509193005 | 20 | 0 | 0.0 | 0.0 | 0.00 | 0.00 | 0.00 | 55 | 1019.9 |
| 20260509192504 | 20 | 285 | 0.0 | 3.2 | 0.00 | 0.00 | 0.00 | 57 | 1019.9 |
| 20260509192005 | 20 | 285 | 0.0 | 3.2 | 0.00 | 0.00 | 0.00 | 60 | 1019.9 |
| 20260509191504 | 20 | 285 | 0.0 | 1.6 | 0.00 | 0.00 | 0.00 | 60 | 1020.0 |
| 20260509191005 | 20 | 0 | 0.0 | 0.0 | 0.00 | 0.00 | 0.00 | 59 | 1020.0 |
| 20260509190504 | 20 | 0 | 0.0 | 0.0 | 0.00 | 0.00 | 0.00 | 60 | 1020.0 |
| 20260509190006 | 19 | 0 | 0.0 | 0.0 | 0.00 | 0.00 | 0.00 | 59 | 1020.1 |
| 20260509185504 | 19 | 0 | 0.0 | 0.0 | 0.00 | 0.00 | 0.00 | 62 | 1020.1 |
| 20260509185005 | 19 | 284 | 0.0 | 1.6 | 0.00 | 0.00 | 0.00 | 59 | 1020.3 |
| 20260509184504 | 19 | 284 | 0.0 | 1.6 | 0.00 | 0.00 | 0.00 | 60 | 1020.3 |
| 20260509184006 | 19 | 0 | 0.0 | 0.0 | 0.00 | 0.00 | 0.00 | 61 | 1020.4 |
| 20260509183504 | 19 | 0 | 0.0 | 0.0 | 0.00 | 0.00 | 0.00 | 62 | 1020.4 |
| 20260509183005 | 18 | 0 | 0.0 | 0.0 | 0.00 | 0.00 | 0.00 | 62 | 1020.3 |
| 20260509182504 | 18 | 0 | 0.0 | 0.0 | 0.00 | 0.00 | 0.00 | 63 | 1020.3 |
| 20260509182005 | 18 | 0 | 0.0 | 0.0 | 0.00 | 0.00 | 0.00 | 64 | 1020.3 |
| 20260509181504 | 18 | 0 | 0.0 | 0.0 | 0.00 | 0.00 | 0.00 | 64 | 1020.3 |
| 20260509180504 | 18 | 274 | 0.0 | 1.6 | 0.00 | 0.00 | 0.00 | 64 | 1020.4 |
| 20260509180005 | 18 | 274 | 0.0 | 1.6 | 0.00 | 0.00 | 0.00 | 65 | 1020.4 |
| 20260509175504 | 18 | 0 | 0.0 | 0.0 | 0.00 | 0.00 | 0.00 | 66 | 1020.4 |
| 20260509175006 | 18 | 270 | 0.0 | 1.6 | 0.00 | 0.00 | 0.00 | 65 | 1020.6 |
| 20260509174504 | 17 | 270 | 0.0 | 1.6 | 0.00 | 0.00 | 0.00 | 65 | 1020.5 |
| 20260509174007 | 17 | 270 | 0.0 | 1.6 | 0.00 | 0.00 | 0.00 | 68 | 1020.5 |
| 20260509173505 | 17 | 0 | 0.0 | 0.0 | 0.00 | 0.00 | 0.00 | 66 | 1020.6 |
| 20260509172505 | 18 | 0 | 0.0 | 0.0 | 0.00 | 0.00 | 0.00 | 67 | 1020.6 |
| 20260509172006 | 17 | 0 | 0.0 | 0.0 | 0.00 | 0.00 | 0.00 | 68 | 1020.7 |
| 20260509171504 | 17 | 0 | 0.0 | 0.0 | 0.00 | 0.00 | 0.00 | 66 | 1020.7 |
| 20260509170504 | 17 | 0 | 0.0 | 0.0 | 0.00 | 0.00 | 0.00 | 68 | 1020.7 |
| 20260509170004 | 17 | 0 | 0.0 | 0.0 | 0.00 | 0.00 | 0.00 | 67 | 1020.8 |
| 20260509165005 | 16 | 0 | 0.0 | 0.0 | 0.00 | 0.00 | 0.00 | 68 | 1021.0 |
| 20260509164504 | 16 | 0 | 0.0 | 0.0 | 0.00 | 0.00 | 0.00 | 70 | 1021.0 |
| 20260509164006 | 16 | 0 | 0.0 | 0.0 | 0.00 | 0.00 | 0.00 | 71 | 1021.1 |
| 20260509163505 | 16 | 0 | 0.0 | 0.0 | 0.00 | 0.00 | 0.00 | 72 | 1021.0 |
| 20260509163005 | 16 | 0 | 0.0 | 0.0 | 0.00 | 0.00 | 0.00 | 72 | 1021.1 |
| 20260509162504 | 16 | 0 | 0.0 | 0.0 | 0.00 | 0.00 | 0.00 | 73 | 1021.1 |
| 20260509162005 | 15 | 0 | 0.0 | 0.0 | 0.00 | 0.00 | 0.00 | 75 | 1021.1 |
| 20260509161006 | 15 | 0 | 0.0 | 0.0 | 0.00 | 0.00 | 0.00 | 75 | 1021.2 |
| 20260509160504 | 15 | 247 | 0.0 | 3.2 | 0.00 | 0.00 | 0.00 | 75 | 1021.4 |
| 20260509160005 | 15 | 247 | 0.0 | 3.2 | 0.00 | 0.00 | 0.00 | 73 | 1021.5 |
| 20260509155504 | 15 | 247 | 0.0 | 3.2 | 0.00 | 0.00 | 0.00 | 75 | 1021.5 |
| 20260509155006 | 15 | 247 | 0.0 | 3.2 | 0.00 | 0.00 | 0.00 | 73 | 1021.4 |
| 20260509154505 | 15 | 0 | 0.0 | 0.0 | 0.00 | 0.00 | 0.00 | 74 | 1021.5 |
| 20260509154005 | 15 | 0 | 0.0 | 0.0 | 0.00 | 0.00 | 0.00 | 76 | 1021.6 |
| 20260509152507 | 13 | 0 | 0.0 | 0.0 | 0.00 | 0.00 | 0.00 | 81 | 1021.5 |
| 20260509151504 | 13 | 0 | 0.0 | 0.0 | 0.00 | 0.00 | 0.00 | 80 | 1021.8 |
| 20260509151005 | 13 | 0 | 0.0 | 0.0 | 0.00 | 0.00 | 0.00 | 81 | 1021.8 |
| 20260509150504 | 13 | 0 | 0.0 | 0.0 | 0.00 | 0.00 | 0.00 | 81 | 1021.8 |
| 20260509150006 | 13 | 0 | 0.0 | 0.0 | 0.00 | 0.00 | 0.00 | 83 | 1021.9 |
| 20260509145006 | 12 | 0 | 0.0 | 0.0 | 0.00 | 0.00 | 0.00 | 84 | 1021.9 |
| 20260509144503 | 12 | 0 | 0.0 | 0.0 | 0.00 | 0.00 | 0.00 | 84 | 1021.9 |
| 20260509144005 | 12 | 0 | 0.0 | 0.0 | 0.00 | 0.00 | 0.00 | 87 | 1021.9 |
| 20260509143006 | 11 | 0 | 0.0 | 0.0 | 0.00 | 0.00 | 0.00 | 90 | 1022.0 |
| 20260509142504 | 11 | 0 | 0.0 | 0.0 | 0.00 | 0.00 | 0.00 | 90 | 1022.1 |
| 20260509142004 | 10 | 0 | 0.0 | 0.0 | 0.00 | 0.00 | 0.00 | 91 | 1022.1 |
| 20260509141504 | 10 | 251 | 0.0 | 1.6 | 0.00 | 0.00 | 0.00 | 92 | 1022.2 |
| 20260509141005 | 10 | 251 | 0.0 | 1.6 | 0.00 | 0.00 | 0.00 | 93 | 1022.1 |
| 20260509140006 | 8 | 0 | 0.0 | 0.0 | 0.00 | 0.00 | 0.00 | 93 | 1022.1 |
| 20260509135504 | 8 | 0 | 0.0 | 0.0 | 0.00 | 0.00 | 0.00 | 92 | 1022.1 |
| 20260509135005 | 8 | 0 | 0.0 | 0.0 | 0.00 | 0.00 | 0.00 | 92 | 1022.1 |
| 20260509134005 | 7 | 0 | 0.0 | 0.0 | 0.00 | 0.00 | 0.00 | 91 | 1022.2 |
| 20260509133505 | 7 | 0 | 0.0 | 0.0 | 0.00 | 0.00 | 0.00 | 91 | 1022.2 |
| 20260509133005 | 7 | 0 | 0.0 | 0.0 | 0.00 | 0.00 | 0.00 | 91 | 1022.2 |
| 20260509132504 | 7 | 0 | 0.0 | 0.0 | 0.00 | 0.00 | 0.00 | 91 | 1022.3 |
| 20260509132004 | 7 | 0 | 0.0 | 0.0 | 0.00 | 0.00 | 0.00 | 90 | 1022.3 |
| 20260509131504 | 7 | 0 | 0.0 | 0.0 | 0.00 | 0.00 | 0.00 | 90 | 1022.2 |
| 20260509131005 | 7 | 0 | 0.0 | 0.0 | 0.00 | 0.00 | 0.00 | 90 | 1022.1 |
| 20260509130505 | 7 | 0 | 0.0 | 0.0 | 0.00 | 0.00 | 0.00 | 90 | 1022.0 |
| 20260509130004 | 7 | 0 | 0.0 | 0.0 | 0.00 | 0.00 | 0.00 | 90 | 1022.0 |
| 20260509125504 | 8 | 0 | 0.0 | 0.0 | 0.00 | 0.00 | 0.00 | 90 | 1022.0 |
| 20260509125006 | 8 | 0 | 0.0 | 0.0 | 0.00 | 0.00 | 0.00 | 90 | 1022.0 |
| 20260509124006 | 8 | 0 | 0.0 | 0.0 | 0.00 | 0.00 | 0.00 | 89 | 1022.0 |
| 20260509123504 | 8 | 0 | 0.0 | 0.0 | 0.00 | 0.00 | 0.00 | 89 | 1022.0 |
| 20260509123005 | 8 | 0 | 0.0 | 0.0 | 0.00 | 0.00 | 0.00 | 89 | 1022.1 |
| 20260509122505 | 8 | 0 | 0.0 | 0.0 | 0.00 | 0.00 | 0.00 | 89 | 1022.1 |
| 20260509122005 | 8 | 0 | 0.0 | 0.0 | 0.00 | 0.00 | 0.00 | 89 | 1022.1 |
| 20260509121504 | 8 | 0 | 0.0 | 0.0 | 0.00 | 0.00 | 0.00 | 89 | 1022.1 |
| 20260509121005 | 8 | 0 | 0.0 | 0.0 | 0.00 | 0.00 | 0.00 | 89 | 1022.1 |
| 20260509120005 | 9 | 0 | 0.0 | 0.0 | 0.00 | 0.00 | 0.00 | 89 | 1022.2 |
| 20260509115505 | 9 | 0 | 0.0 | 0.0 | 0.00 | 0.00 | 0.00 | 89 | 1022.2 |
| 20260509115006 | 9 | 0 | 0.0 | 0.0 | 0.00 | 0.00 | 0.00 | 89 | 1022.1 |
| 20260509114504 | 9 | 0 | 0.0 | 0.0 | 0.00 | 0.00 | 0.00 | 89 | 1022.2 |
| 20260509113504 | 9 | 0 | 0.0 | 0.0 | 0.00 | 0.00 | 0.00 | 88 | 1022.2 |
| 20260509113005 | 9 | 0 | 0.0 | 0.0 | 0.00 | 0.00 | 0.00 | 88 | 1022.2 |
| 20260509112504 | 9 | 0 | 0.0 | 0.0 | 0.00 | 0.00 | 0.00 | 88 | 1022.2 |
| 20260509111504 | 10 | 0 | 0.0 | 0.0 | 0.00 | 0.00 | 0.00 | 87 | 1022.2 |
| 20260509110505 | 10 | 0 | 0.0 | 0.0 | 0.00 | 0.00 | 0.00 | 87 | 1022.3 |
| 20260509110004 | 10 | 0 | 0.0 | 0.0 | 0.00 | 0.00 | 0.00 | 86 | 1022.2 |
| 20260509105504 | 10 | 0 | 0.0 | 0.0 | 0.00 | 0.00 | 0.00 | 86 | 1022.3 |
| 20260509105004 | 10 | 0 | 0.0 | 0.0 | 0.00 | 0.00 | 0.00 | 86 | 1022.3 |
| 20260509104004 | 10 | 0 | 0.0 | 0.0 | 0.00 | 0.00 | 0.00 | 86 | 1022.4 |
| 20260509103005 | 11 | 0 | 0.0 | 0.0 | 0.00 | 0.00 | 0.00 | 85 | 1022.4 |
| 20260509102503 | 11 | 0 | 0.0 | 0.0 | 0.00 | 0.00 | 0.00 | 85 | 1022.5 |
| 20260509101504 | 11 | 0 | 0.0 | 0.0 | 0.00 | 0.00 | 0.00 | 85 | 1022.5 |
| 20260509101004 | 11 | 0 | 0.0 | 0.0 | 0.00 | 0.00 | 0.00 | 85 | 1022.5 |
| 20260509100504 | 11 | 0 | 0.0 | 0.0 | 0.00 | 0.00 | 0.00 | 85 | 1022.6 |
| 20260509100005 | 11 | 0 | 0.0 | 0.0 | 0.00 | 0.00 | 0.00 | 85 | 1022.6 |
| 20260509095005 | 11 | 0 | 0.0 | 0.0 | 0.00 | 0.00 | 0.00 | 85 | 1022.6 |
| 20260509094503 | 11 | 0 | 0.0 | 0.0 | 0.00 | 0.00 | 0.00 | 85 | 1022.7 |
| 20260509094005 | 11 | 0 | 0.0 | 0.0 | 0.00 | 0.00 | 0.00 | 85 | 1022.7 |
| 20260509093504 | 11 | 0 | 0.0 | 0.0 | 0.00 | 0.00 | 0.00 | 85 | 1022.8 |
| 20260509093005 | 11 | 0 | 0.0 | 0.0 | 0.00 | 0.00 | 0.00 | 85 | 1022.7 |
| 20260509092504 | 11 | 0 | 0.0 | 0.0 | 0.00 | 0.00 | 0.00 | 85 | 1022.7 |
| 20260509092004 | 11 | 0 | 0.0 | 0.0 | 0.00 | 0.00 | 0.00 | 85 | 1022.8 |
| 20260509091503 | 11 | 0 | 0.0 | 0.0 | 0.00 | 0.00 | 0.00 | 85 | 1022.9 |
| 20260509091004 | 11 | 0 | 0.0 | 0.0 | 0.00 | 0.00 | 0.00 | 86 | 1022.9 |
| 20260509090504 | 11 | 0 | 0.0 | 0.0 | 0.00 | 0.00 | 0.00 | 86 | 1022.9 |
| 20260509090004 | 11 | 0 | 0.0 | 0.0 | 0.00 | 0.00 | 0.00 | 86 | 1022.9 |
| 20260509085504 | 11 | 0 | 0.0 | 0.0 | 0.00 | 0.00 | 0.00 | 86 | 1022.9 |
| 20260509085004 | 11 | 0 | 0.0 | 0.0 | 0.00 | 0.00 | 0.00 | 86 | 1022.8 |
| 20260509084504 | 11 | 0 | 0.0 | 0.0 | 0.00 | 0.00 | 0.00 | 85 | 1022.9 |
| 20260509084006 | 11 | 0 | 0.0 | 0.0 | 0.00 | 0.00 | 0.00 | 85 | 1023.0 |
| 20260509083504 | 11 | 0 | 0.0 | 0.0 | 0.00 | 0.00 | 0.00 | 85 | 1023.0 |
| 20260509083004 | 11 | 0 | 0.0 | 0.0 | 0.00 | 0.00 | 0.00 | 85 | 1023.0 |
| 20260509082503 | 11 | 0 | 0.0 | 0.0 | 0.00 | 0.00 | 0.00 | 85 | 1023.0 |
| 20260509082005 | 11 | 0 | 0.0 | 0.0 | 0.00 | 0.00 | 0.00 | 85 | 1023.0 |
| 20260509081504 | 11 | 0 | 0.0 | 0.0 | 0.00 | 0.00 | 0.00 | 85 | 1023.0 |
| 20260509081005 | 11 | 0 | 0.0 | 0.0 | 0.00 | 0.00 | 0.00 | 85 | 1023.0 |
| 20260509080504 | 11 | 0 | 0.0 | 0.0 | 0.00 | 0.00 | 0.00 | 86 | 1023.1 |
| 20260509080004 | 11 | 0 | 0.0 | 0.0 | 0.00 | 0.00 | 0.00 | 86 | 1023.0 |
| 20260509075504 | 11 | 0 | 0.0 | 0.0 | 0.00 | 0.00 | 0.00 | 86 | 1022.9 |
| 20260509074505 | 11 | 0 | 0.0 | 0.0 | 0.00 | 0.00 | 0.00 | 86 | 1022.9 |
| 20260509073505 | 10 | 0 | 0.0 | 0.0 | 0.00 | 0.00 | 0.00 | 87 | 1022.9 |
| 20260509073005 | 10 | 0 | 0.0 | 0.0 | 0.00 | 0.00 | 0.00 | 85 | 1022.9 |
| 20260509072505 | 10 | 0 | 0.0 | 0.0 | 0.00 | 0.00 | 0.00 | 85 | 1023.0 |
| 20260509072005 | 10 | 0 | 0.0 | 0.0 | 0.00 | 0.00 | 0.00 | 85 | 1022.9 |
| 20260509071505 | 10 | 0 | 0.0 | 0.0 | 0.00 | 0.00 | 0.00 | 85 | 1022.9 |
| 20260509071006 | 10 | 0 | 0.0 | 0.0 | 0.00 | 0.00 | 0.00 | 85 | 1022.8 |
| 20260509070505 | 10 | 0 | 0.0 | 0.0 | 0.00 | 0.00 | 0.00 | 86 | 1022.8 |
| 20260509065006 | 10 | 0 | 0.0 | 0.0 | 0.00 | 0.00 | 0.00 | 86 | 1022.7 |
| 20260509064505 | 10 | 0 | 0.0 | 0.0 | 0.00 | 0.00 | 0.00 | 86 | 1022.7 |
| 20260509064006 | 10 | 0 | 0.0 | 0.0 | 0.00 | 0.00 | 0.00 | 85 | 1022.7 |
| 20260509063505 | 10 | 0 | 0.0 | 0.0 | 0.00 | 0.00 | 0.00 | 85 | 1022.6 |
| 20260509063007 | 10 | 0 | 0.0 | 0.0 | 0.00 | 0.00 | 0.00 | 85 | 1022.7 |
| 20260509062505 | 10 | 0 | 0.0 | 0.0 | 0.00 | 0.00 | 0.00 | 85 | 1022.6 |
| 20260509062005 | 10 | 0 | 0.0 | 0.0 | 0.00 | 0.00 | 0.00 | 84 | 1022.6 |
| 20260509061505 | 10 | 0 | 0.0 | 0.0 | 0.00 | 0.00 | 0.00 | 84 | 1022.6 |
| 20260509061005 | 10 | 0 | 0.0 | 0.0 | 0.00 | 0.00 | 0.00 | 83 | 1022.6 |
| 20260509060504 | 10 | 0 | 0.0 | 0.0 | 0.00 | 0.00 | 0.00 | 83 | 1022.6 |
| 20260509060005 | 10 | 0 | 0.0 | 0.0 | 0.00 | 0.00 | 0.00 | 83 | 1022.6 |
| 20260509055505 | 11 | 0 | 0.0 | 0.0 | 0.00 | 0.00 | 0.00 | 83 | 1022.5 |
| 20260509055005 | 11 | 0 | 0.0 | 0.0 | 0.00 | 0.00 | 0.00 | 82 | 1022.5 |
| 20260509054505 | 11 | 0 | 0.0 | 0.0 | 0.00 | 0.00 | 0.00 | 82 | 1022.5 |
| 20260509054006 | 11 | 0 | 0.0 | 0.0 | 0.00 | 0.00 | 0.00 | 82 | 1022.5 |
| 20260509053506 | 11 | 0 | 0.0 | 0.0 | 0.00 | 0.00 | 0.00 | 82 | 1022.5 |
| 20260509053006 | 11 | 0 | 0.0 | 0.0 | 0.00 | 0.00 | 0.00 | 82 | 1022.5 |
| 20260509052005 | 11 | 0 | 0.0 | 0.0 | 0.00 | 0.00 | 0.00 | 81 | 1022.4 |
| 20260509051505 | 11 | 0 | 0.0 | 0.0 | 0.00 | 0.00 | 0.00 | 80 | 1022.4 |
| 20260509051006 | 11 | 0 | 0.0 | 0.0 | 0.00 | 0.00 | 0.00 | 80 | 1022.3 |
| 20260509050505 | 11 | 0 | 0.0 | 0.0 | 0.00 | 0.00 | 0.00 | 80 | 1022.4 |
| 20260509050006 | 11 | 0 | 0.0 | 0.0 | 0.00 | 0.00 | 0.00 | 79 | 1022.4 |
| 20260509045005 | 11 | 0 | 0.0 | 0.0 | 0.00 | 0.00 | 0.00 | 78 | 1022.4 |
| 20260509044505 | 12 | 0 | 0.0 | 0.0 | 0.00 | 0.00 | 0.00 | 77 | 1022.3 |
| 20260509044006 | 12 | 0 | 0.0 | 0.0 | 0.00 | 0.00 | 0.00 | 77 | 1022.3 |
| 20260509043505 | 12 | 0 | 0.0 | 0.0 | 0.00 | 0.00 | 0.00 | 77 | 1022.3 |
| 20260509043006 | 12 | 0 | 0.0 | 0.0 | 0.00 | 0.00 | 0.00 | 76 | 1022.2 |
| 20260509042505 | 12 | 0 | 0.0 | 0.0 | 0.00 | 0.00 | 0.00 | 76 | 1022.2 |
| 20260509042005 | 12 | 0 | 0.0 | 0.0 | 0.00 | 0.00 | 0.00 | 76 | 1022.1 |
| 20260509041505 | 12 | 0 | 0.0 | 0.0 | 0.00 | 0.00 | 0.00 | 76 | 1022.1 |
| 20260509041006 | 12 | 0 | 0.0 | 0.0 | 0.00 | 0.00 | 0.00 | 75 | 1022.1 |
| 20260509040505 | 12 | 0 | 0.0 | 0.0 | 0.00 | 0.00 | 0.00 | 75 | 1022.0 |
| 20260509040006 | 12 | 251 | 0.0 | 3.2 | 0.00 | 0.00 | 0.00 | 74 | 1022.0 |
| 20260509035505 | 12 | 251 | 0.0 | 3.2 | 0.00 | 0.00 | 0.00 | 74 | 1021.9 |
| 20260509035006 | 13 | 251 | 0.0 | 3.2 | 0.00 | 0.00 | 0.00 | 73 | 1021.8 |
| 20260509034506 | 13 | 251 | 0.0 | 1.6 | 0.00 | 0.00 | 0.00 | 73 | 1021.7 |
| 20260509034006 | 13 | 0 | 0.0 | 0.0 | 0.00 | 0.00 | 0.00 | 72 | 1021.7 |
| 20260509033505 | 13 | 0 | 0.0 | 0.0 | 0.00 | 0.00 | 0.00 | 72 | 1021.6 |
| 20260509033006 | 13 | 251 | 0.0 | 3.2 | 0.00 | 0.00 | 0.00 | 71 | 1021.5 |
| 20260509032505 | 13 | 250 | 0.0 | 3.2 | 0.00 | 0.00 | 0.00 | 71 | 1021.4 |
| 20260509032005 | 13 | 251 | 0.0 | 1.6 | 0.00 | 0.00 | 0.00 | 70 | 1021.5 |
| 20260509031505 | 13 | 251 | 0.0 | 1.6 | 0.00 | 0.00 | 0.00 | 70 | 1021.5 |
| 20260509025504 | 14 | 0 | 0.0 | 0.0 | 0.00 | 0.00 | 0.00 | 68 | 1021.3 |
| 20260509024504 | 15 | 251 | 0.0 | 1.6 | 0.00 | 0.00 | 0.00 | 67 | 1021.3 |
| 20260509024006 | 15 | 251 | 0.0 | 1.6 | 0.00 | 0.00 | 0.00 | 66 | 1021.3 |
| 20260509023006 | 15 | 250 | 0.0 | 4.8 | 0.00 | 0.00 | 0.00 | 66 | 1021.2 |
| 20260509022505 | 15 | 250 | 0.0 | 4.8 | 0.00 | 0.00 | 0.00 | 65 | 1021.2 |
| 20260509021505 | 15 | 251 | 0.0 | 6.4 | 0.00 | 0.00 | 0.00 | 64 | 1021.2 |
| 20260509021006 | 15 | 0 | 0.0 | 0.0 | 0.00 | 0.00 | 0.00 | 64 | 1021.2 |
| 20260509020005 | 15 | 251 | 0.0 | 1.6 | 0.00 | 0.00 | 0.00 | 63 | 1021.2 |
| 20260509014505 | 15 | 251 | 0.0 | 4.8 | 0.00 | 0.00 | 0.00 | 62 | 1021.2 |
| 20260509014006 | 15 | 250 | 0.0 | 8.0 | 0.00 | 0.00 | 0.00 | 62 | 1021.2 |
| 20260509013505 | 15 | 249 | 0.0 | 8.0 | 0.00 | 0.00 | 0.00 | 61 | 1021.1 |
| 20260509013005 | 16 | 245 | 0.0 | 3.2 | 0.00 | 0.00 | 0.00 | 61 | 1021.1 |
| 20260509012505 | 16 | 243 | 0.0 | 6.4 | 0.00 | 0.00 | 0.00 | 61 | 1021.1 |
| 20260509012006 | 16 | 243 | 0.0 | 6.4 | 0.00 | 0.00 | 0.00 | 61 | 1021.1 |
| 20260509011504 | 16 | 243 | 0.0 | 4.8 | 0.00 | 0.00 | 0.00 | 61 | 1021.2 |
| 20260509011006 | 16 | 242 | 0.0 | 3.2 | 0.00 | 0.00 | 0.00 | 60 | 1021.2 |
| 20260509010506 | 16 | 242 | 0.0 | 1.6 | 0.00 | 0.00 | 0.00 | 61 | 1021.2 |
| 20260509010005 | 16 | 242 | 0.0 | 3.2 | 0.00 | 0.00 | 0.00 | 61 | 1021.3 |
| 20260509004505 | 16 | 241 | 0.0 | 3.2 | 0.00 | 0.00 | 0.00 | 60 | 1021.3 |
| 20260509004006 | 16 | 241 | 0.0 | 3.2 | 0.00 | 0.00 | 0.00 | 60 | 1021.2 |
| 20260509003504 | 16 | 239 | 0.0 | 1.6 | 0.00 | 0.00 | 0.00 | 61 | 1021.2 |
| 20260509003006 | 16 | 238 | 0.0 | 4.8 | 0.00 | 0.00 | 0.00 | 61 | 1021.3 |
| 20260509002505 | 16 | 238 | 0.0 | 4.8 | 0.00 | 0.00 | 0.00 | 59 | 1021.3 |
| 20260509002006 | 16 | 238 | 0.0 | 3.2 | 0.00 | 0.00 | 0.00 | 58 | 1021.3 |
| 20260509001504 | 16 | 239 | 0.0 | 3.2 | 0.00 | 0.00 | 0.00 | 59 | 1021.3 |
| 20260509001006 | 16 | 238 | 0.0 | 3.2 | 0.00 | 0.00 | 0.00 | 57 | 1021.2 |
| 20260509000505 | 17 | 238 | 0.0 | 6.4 | 0.00 | 0.00 | 0.00 | 57 | 1021.2 |
| 20260508235505 | 17 | 220 | 0.0 | 1.6 | 0.00 | 0.00 | 0.00 | 55 | 1021.1 |
| 20260508235005 | 17 | 220 | 0.0 | 1.6 | 0.00 | 0.00 | 0.00 | 56 | 1021.1 |
| 20260508234504 | 17 | 0 | 0.0 | 0.0 | 0.00 | 0.00 | 0.00 | 55 | 1021.2 |
| 20260508234006 | 17 | 0 | 0.0 | 0.0 | 0.00 | 0.00 | 0.00 | 54 | 1021.1 |
| 20260508233504 | 17 | 0 | 0.0 | 0.0 | 0.00 | 0.00 | 0.00 | 54 | 1021.1 |
| 20260508233006 | 17 | 217 | 0.0 | 4.8 | 0.00 | 0.00 | 0.00 | 55 | 1021.2 |
| 20260508232504 | 17 | 217 | 0.0 | 4.8 | 0.00 | 0.00 | 0.00 | 56 | 1021.1 |
| 20260508232006 | 17 | 215 | 0.0 | 1.6 | 0.00 | 0.00 | 0.00 | 53 | 1021.1 |